Chattanooga, TN

4:33 AM EDT on August 22, 2017 (GMT -0400)
Lovell

Weather History for KCHA - October, 2011

Change the Weather History Date:

Thursday, October 13, 2011

  Actual Average Record
Temperature  
Mean Temperature 66 °F 62 °F  
Max Temperature 70 °F 74 °F 88 °F (1954)
Min Temperature 61 °F 51 °F 32 °F (1988)
Degree Days  
Heating Degree Days 0 4  
Month to date heating degree days 30 39  
Since 1 July heating degree days 33 54  
Cooling Degree Days 1 2  
Month to date cooling degree days 11 33  
Year to date cooling degree days 2108 1722  
Growing Degree Days 15 (Base 50)    
Moisture  
Dew Point 60 °F    
Average Humidity 78    
Maximum Humidity 93    
Minimum Humidity 63    
Precipitation  
Precipitation 0.31 in 0.10 in 1.22 in (1959)
Month to date precipitation 1.44 1.40  
Year to date precipitation 48.86 40.70  
Snow  
Snow 0.00 in 0.00 in - ()
Month to date snowfall 0.0 0.0  
Since 1 July snowfall 0.0 0.0  
Since 1 September snowfall 0.0 0.0  
Snow Depth 0.00 in    
Sea Level Pressure  
Sea Level Pressure 29.69 in    
Wind  
Wind Speed 7 mph (SSW)    
Max Wind Speed 17 mph    
Max Gust Speed 23 mph    
Visibility 8 miles    
Events Rain    
T = Trace of Precipitation, MM = Missing Value Source: NWS Daily Summary

Daily Weather History Graph

Daily Weather History Graph

Search for Another Location

Airport or City:

Trip Planner

Search our weather history database for the weather conditions in past years. The results will help you decide how hot, cold, wet, or windy it might be!

Date:

Astronomy

Oct. 13, 2011 Rise Set
Actual Time 7:44 AM EDT 7:08 PM EDT
Civil Twilight 7:19 AM EDT 7:34 PM EDT
Nautical Twilight 6:50 AM EDT 8:03 PM EDT
Astronomical Twilight 6:20 AM EDT 8:32 PM EDT
Moon 7:50 PM EDT (10/13) 9:10 AM EDT (10/13)
Length of Visible Light 12h 14m
Length of Day
11h 23m
Full, 98% of the Moon is Illuminated
Oct 13
Full
Oct 19
Last Quarter
Oct 26
New
Nov 2
First Quarter
Nov 10
Full

Hourly Weather History & Observations

Time (EDT) Temp. Dew Point Humidity Pressure Visibility Wind Dir Wind Speed Gust Speed Precip Events Conditions
12:04 AM 64.4 °F 60.8 °F 88% 29.79 in 10.0 mi SSE 4.6 mph - N/A   Overcast
12:50 AM 64.4 °F 60.8 °F 88% 29.77 in 10.0 mi South 3.5 mph - N/A   Overcast
12:53 AM 64.9 °F 61.0 °F 87% 29.76 in 10.0 mi South 3.5 mph - N/A   Overcast
1:24 AM 64.4 °F 60.8 °F 88% 29.76 in 10.0 mi South 4.6 mph - N/A   Overcast
1:53 AM 64.0 °F 61.0 °F 90% 29.74 in 10.0 mi South 5.8 mph - N/A   Overcast
2:37 AM 64.4 °F 60.8 °F 88% 29.74 in 5.0 mi South 4.6 mph - 0.00 in   Light Drizzle
2:53 AM 63.0 °F 61.0 °F 93% 29.72 in 7.0 mi South 3.5 mph - 0.00 in   Light Drizzle
3:53 AM 63.0 °F 61.0 °F 93% 29.70 in 3.0 mi SSE 3.5 mph - 0.01 in   Light Drizzle
4:01 AM 62.6 °F 60.8 °F 94% 29.71 in 6.0 mi South 3.5 mph - 0.00 in   Overcast
4:27 AM 62.6 °F 60.8 °F 94% 29.71 in 7.0 mi Calm Calm - 0.00 in   Mostly Cloudy
4:53 AM 63.0 °F 61.0 °F 93% 29.69 in 7.0 mi South 4.6 mph - 0.00 in   Overcast
5:21 AM 62.6 °F 60.8 °F 94% 29.70 in 8.0 mi South 4.6 mph - N/A   Overcast
5:53 AM 62.1 °F 60.1 °F 93% 29.68 in 8.0 mi South 5.8 mph - N/A   Overcast
6:15 AM 62.6 °F 60.8 °F 94% 29.69 in 8.0 mi South 4.6 mph - 0.00 in Rain Light Rain
6:47 AM 62.6 °F 60.8 °F 94% 29.69 in 8.0 mi South 3.5 mph - 0.00 in   Mostly Cloudy
6:53 AM 62.1 °F 60.1 °F 93% 29.68 in 7.0 mi SSE 4.6 mph - 0.00 in   Overcast
7:53 AM 63.0 °F 60.1 °F 90% 29.67 in 6.0 mi SSE 4.6 mph - N/A   Overcast
8:01 AM 62.6 °F 60.8 °F 94% 29.68 in 1.2 mi South 3.5 mph - 0.01 in Rain Heavy Rain
8:09 AM 62.6 °F 60.8 °F 94% 29.68 in 1.5 mi South 3.5 mph - 0.05 in Rain Light Rain
8:53 AM 62.1 °F 61.0 °F 96% 29.66 in 1.8 mi SSE 5.8 mph - 0.09 in Rain Light Rain
9:45 AM 62.6 °F 60.8 °F 94% 29.66 in 1.2 mi South 4.6 mph - 0.08 in Rain Light Rain
9:53 AM 63.0 °F 61.0 °F 93% 29.65 in 1.5 mi SSE 8.1 mph - 0.14 in Rain Light Rain
10:39 AM 64.4 °F 62.6 °F 94% 29.66 in 7.0 mi South 8.1 mph - 0.06 in   Mostly Cloudy
10:49 AM 64.4 °F 62.6 °F 94% 29.67 in 10.0 mi SW 9.2 mph - 0.06 in   Mostly Cloudy
10:53 AM 64.9 °F 61.0 °F 87% 29.65 in 10.0 mi SW 9.2 mph - 0.06 in   Mostly Cloudy
11:53 AM 66.9 °F 60.1 °F 79% 29.65 in 10.0 mi WSW 8.1 mph - N/A   Mostly Cloudy
12:53 PM 66.0 °F 60.1 °F 81% 29.65 in 9.0 mi SW 9.2 mph - 0.00 in Rain Light Rain
1:53 PM 68.0 °F 57.9 °F 70% 29.63 in 10.0 mi West 6.9 mph - 0.00 in   Mostly Cloudy
2:53 PM 68.0 °F 55.9 °F 65% 29.61 in 10.0 mi WSW 6.9 mph - N/A   Mostly Cloudy
3:53 PM 68.0 °F 57.0 °F 68% 29.61 in 10.0 mi West 13.8 mph 23.0 mph N/A   Mostly Cloudy
4:53 PM 66.9 °F 55.0 °F 66% 29.62 in 10.0 mi West 9.2 mph - N/A   Mostly Cloudy
5:53 PM 66.9 °F 55.9 °F 68% 29.63 in 10.0 mi WSW 8.1 mph - N/A   Mostly Cloudy
6:53 PM 66.0 °F 55.9 °F 70% 29.65 in 10.0 mi WSW 5.8 mph - N/A   Mostly Cloudy
7:53 PM 63.0 °F 57.9 °F 84% 29.67 in 10.0 mi WSW 6.9 mph - 0.01 in   Light Drizzle
8:53 PM 62.1 °F 57.9 °F 86% 29.69 in 10.0 mi West 4.6 mph - 0.00 in   Mostly Cloudy
9:53 PM 62.1 °F 57.0 °F 84% 29.71 in 10.0 mi WSW 4.6 mph - N/A   Scattered Clouds
10:53 PM 62.1 °F 55.0 °F 78% 29.73 in 10.0 mi West 6.9 mph 16.1 mph N/A   Mostly Cloudy
11:53 PM 61.0 °F 55.0 °F 81% 29.74 in 10.0 mi Variable 5.8 mph - N/A   Mostly Cloudy